{"data":{"norad_id":54214,"intl_designator":"2022-142A","name":"SHIYAN-20C (SY-20C)","alt_names":[],"object_type":"PAYLOAD","status":"ACTIVE","operator":null,"country":"PRC","launch_date":"2022-10-29","launch_site_code":"JSC","launch_vehicle":null,"mission":null,"orbit_class":"UNKNOWN","rcs_meters":null,"size_class":null,"mass_kg":null,"dimensions":null,"purposes":[],"wikipedia_slug":null,"has_3d_model":false,"image_url":null,"decayed_at":null,"tle_current":{"epoch":"2026-09-20T18:44:54.453984Z","epoch_age_seconds":134604,"freshness":"FRESH","line1":"1 54214U 22142A   26263.78118581 -.00000057  00000+0  30884-4 0  9994","line2":"2 54214  59.9983 344.4040 0022144  44.3134 315.9669 14.29574894203368","mean_motion":14.29574894,"eccentricity":0.0022144,"inclination_deg":59.9983,"raan_deg":344.404,"arg_perigee_deg":44.3134,"mean_anomaly_deg":315.9669,"bstar":3.0884e-5,"rev_number":20336,"period_min":100.72924517937,"perigee_km":777.27203301754,"apogee_km":809.03223834163,"semimajor_km":7171.2891356796,"source":"CELESTRAK","updated_at":"2026-09-21T09:00:09.449258Z"}}}